Meteo Giornale » Osservazioni meteo Messico » Mexico City-Licenci

ore: 16:46 - Osservazioni Meteo Mexico City-Licenci
Lat. 19° 26' N Lon. 99° 6' W Alt. 2238 metri s.l.m.

molto_nuvoloso America/Mexico_City

24 °C

Molto Nuvoloso

Temp. 24 Ore

11 °C

24 °C

Nord

5.5 Km/h

Dew point 8 °C

Umidità 35 %

Visibilità  6 Km

Il sole sorge alle ore 07:31

Il sole tramonta alle ore 19:11

Data e Ora Cielo e Fenomeni T °C DP °C Um. % Pres. hPa Vis. km Vento km/h
Oggi h: 16:46 molto_nuvoloso Molto Nuvoloso 24 8 35 1025 6 N 5.5
Oggi h: 15:41 molto_nuvoloso Molto Nuvoloso 24 8 35 1026 6 E/NE 14.8
Oggi h: 14:47 nuvoloso Nuvoloso 22 8 40 1027 6 N 5.5
Oggi h: 13:50 sereno Sereno 21 8 43 1028 6 NO 9.3
Oggi h: 12:49 foschia Foschia 20 9 49 1030 5 NO 9.3
Oggi h: 12:31 foschia Foschia 19 9 52 1030 5 N 0
Oggi h: 11:51 foschia Foschia 17 9 59 1031 5 N 5.5
Oggi h: 11:37 poco_nuvoloso Poco Nuvoloso 17 9 59 1031 6 O 7.4
Oggi h: 10:49 coperto Coperto 15 9 67 1031 6 N 5.5
Oggi h: 09:44 coperto Coperto 13 9 76 1031 6 E/NE 13
Oggi h: 08:46 coperto Coperto 12 9 81 1030 6 E/NE 7.4
Oggi h: 07:44 coperto Coperto 11 8 81 1030 8 E/NE 16.7
Oggi h: 06:50 coperto Coperto 12 9 81 1029 13 N 5.5
Oggi h: 05:46 molto_nuvoloso Molto Nuvoloso 11 9 87 1029 13 E/NE 11.1
Oggi h: 05:07 poco_nuvoloso Poco Nuvoloso 11 9 87 1028 10 E/NE 7.4
Oggi h: 04:55 sereno Sereno 11 9 87 1029 19 E/NE 9.3
Oggi h: 03:48 sereno Sereno 12 9 81 1029 10 E/NE 7.4
Oggi h: 02:47 sereno Sereno 13 9 76 1029 19 N/NO 7.4
Oggi h: 01:47 poco_nuvoloso Poco Nuvoloso 14 9 71 1029 19 NO 11.1
Oggi h: 00:55 poco_nuvoloso Poco Nuvoloso 14 9 71 1030 19 O/NO 13
Ieri h: 23:41 nuvoloso Nuvoloso 15 8 62 1030 19 O/NO 13
Ieri h: 22:41 nuvoloso Nuvoloso 16 8 58 1030 19 O 18.5
Ieri h: 21:44 nuvoloso Nuvoloso 17 8 55 1030 19 N 11.1
Ieri h: 20:45 molto_nuvoloso Molto Nuvoloso 18 8 51 1028 10 NO 14.8
Ieri h: 19:43 molto_nuvoloso Molto Nuvoloso 19 8 48 1027 14 N 22.2
Ieri h: 17:42 molto_nuvoloso Molto Nuvoloso 21 9 46 1027 14 N/NO 14.8